(64) Angelina
ephemeris date magn radius delta ra dec elong phase
Today7 Jul 202512.63.020 AU2.180 AU21h53m-12°41'138.7°12.8°
Opposition12 Aug 202511.73.014 AU2.001 AU21h27m-14°34'179.6°0.1°
(64) Angelina - 2025-07-07
astro.vanbuitenen.nl


 
-1 year
-1 month
-1 day
Now
+1 day
+1 month
+1 year

The interactive orbit chart above shows the body's path through the solar system and its position at the given date. Green and blue lines are shown perpendicular to the ecliptic plane: Green if the path is above the ecliptic plane, blue if it is below. (Left-click and drag to rotate the view; Right-click and drag to move the view; Use scroll wheel to zoom in our out.)

The orbital elements of Angelina are:

            e (Eccentricity)                : 0.1263913
            a (Semimajor axis)              : 2.6813521
            i (Inclination)                 : 1.30576
            Ω (Longitude of ascending node) : 308.95638
            ω (Argument of perihelion)      : 181.02656
            M (Mean anomaly)                : 170.05788
            Epoch                           : 2025 May 05

            L (Longitude of perihelion)     : 309.98267
            B (Latitude of perihelion)      : -0.02339
            P (Orbital period in years)     : 4.39            
        

The light curve chart below shows the estimated development of the minor planet's magnitude.


The all-sky chart below shows the path of the minor planet over the same period as the light curve. The current position is marked yellow.





The following chart shows the path of the minor planet in the next few days. The field of view is optimized for (~10x50) binoculars and finderscopes. A more printer-friendly version of the same chart can be found below.




Ephemerides:
Date       Time       RA (2000)    DEC (2000)    delta   radius  elong  phase   PA    magn
2025-07-07 00:00 UT   21 53 12.3   -12 41 27     2.180    3.020  138.7   12.8   250   12.6 
2025-07-07 09:42 UT   21 53 02.9   -12 42 07     2.177    3.020  139.1   12.7   250   12.6 
2025-07-08 00:00 UT   21 52 48.8   -12 43 08     2.171    3.019  139.8   12.6   250   12.6 
2025-07-09 00:00 UT   21 52 24.0   -12 44 54     2.162    3.019  140.8   12.3   250   12.6 
2025-07-10 00:00 UT   21 51 57.9   -12 46 48     2.154    3.019  141.9   12.0   250   12.5 
2025-07-11 00:00 UT   21 51 30.6   -12 48 47     2.145    3.019  142.9   11.7   250   12.5 
2025-07-12 00:00 UT   21 51 02.0   -12 50 52     2.137    3.019  144.0   11.4   250   12.5 
2025-07-13 00:00 UT   21 50 32.2   -12 53 04     2.129    3.019  145.1   11.1   250   12.5 
2025-07-14 00:00 UT   21 50 01.1   -12 55 22     2.121    3.019  146.2   10.8   250   12.5 
2025-07-15 00:00 UT   21 49 28.9   -12 57 45     2.113    3.019  147.3   10.5   250   12.4 
2025-07-16 00:00 UT   21 48 55.5   -13 00 14     2.106    3.019  148.4   10.2   250   12.4 
2025-07-17 00:00 UT   21 48 20.9   -13 02 49     2.099    3.019  149.5    9.8   250   12.4 
2025-07-18 00:00 UT   21 47 45.2   -13 05 29     2.092    3.018  150.6    9.5   250   12.4 
2025-07-19 00:00 UT   21 47 08.3   -13 08 15     2.085    3.018  151.7    9.2   250   12.4 
2025-07-20 00:00 UT   21 46 30.4   -13 11 05     2.078    3.018  152.8    8.9   250   12.3 
2025-07-21 00:00 UT   21 45 51.4   -13 14 01     2.072    3.018  153.9    8.5   250   12.3 
2025-07-22 00:00 UT   21 45 11.3   -13 17 02     2.066    3.018  155.0    8.2   250   12.3 
2025-07-23 00:00 UT   21 44 30.3   -13 20 07     2.060    3.018  156.2    7.8   250   12.3 
2025-07-24 00:00 UT   21 43 48.2   -13 23 17     2.055    3.018  157.3    7.5   250   12.3 
2025-07-25 00:00 UT   21 43 05.3   -13 26 31     2.050    3.017  158.4    7.1   250   12.2 
2025-07-26 00:00 UT   21 42 21.4   -13 29 49     2.045    3.017  159.6    6.7   250   12.2 
2025-07-27 00:00 UT   21 41 36.7   -13 33 10     2.040    3.017  160.7    6.4   250   12.2 
2025-07-28 00:00 UT   21 40 51.1   -13 36 36     2.035    3.017  161.9    6.0   250   12.2 
2025-07-29 00:00 UT   21 40 04.8   -13 40 04     2.031    3.017  163.0    5.6   250   12.1 
2025-07-30 00:00 UT   21 39 17.8   -13 43 36     2.027    3.017  164.2    5.3   250   12.1 
2025-07-31 00:00 UT   21 38 30.0   -13 47 10     2.023    3.017  165.3    4.9   250   12.1 
2025-08-01 00:00 UT   21 37 41.6   -13 50 47     2.020    3.016  166.5    4.5   250   12.1 
2025-08-02 00:00 UT   21 36 52.7   -13 54 26     2.017    3.016  167.7    4.1   250   12.0 
2025-08-03 00:00 UT   21 36 03.1   -13 58 08     2.014    3.016  168.8    3.7   250   12.0 
2025-08-04 00:00 UT   21 35 13.1   -14 01 51     2.011    3.016  170.0    3.3   250   12.0 
2025-08-05 00:00 UT   21 34 22.6   -14 05 36     2.009    3.016  171.2    3.0   249   12.0 
2025-08-06 00:00 UT   21 33 31.7   -14 09 22     2.007    3.015  172.3    2.6   249   11.9 


    Terminology:
            
    delta:  distance between minor planet and earth in AU
    radius: distance between minor planet and sun in AU
    magn:   magnitude (brightness) estimate    
    ra:     right ascension in hours (24h = 360deg)
    dec:    declination in degrees
    elong:  elongation in degrees (angle sun-earth-minor planet)    
    phase:  phase angle in degrees (angle sun-minor planet-earth)        
    AU:     Astronomical Unit (mean distance between earth and sun: 149597870.7 km
    

Orbital elements provided by the MPC (Minor Planet Center).
Calculations by a modified version of AAPlus, a C# implementation of the AA+ project by PJ Naughter from the algorithms presented in the book "Astronomical Algorithms" by Jean Meeus.
NGC2000 dso catalog and star labels from VizieR as provided by the Strasbourg astronomical Data Center.
Tycho2 catalog from the ESO archive.